Overview Statistics Trail Chart Weather Telemetry Raw packets
 

This is the latest recevied weather packets stored in our database for station/object DC4AT. If no packets are shown the sender has not sent any weather packets the latest 10 day(s).

<< 5 6 7 8 9 10 11 >>
Time Temp. Humidity Pressure Rain* Wind** Luminosity Snow
1788501433 18.33° C 86% 1012.9 hPa 0 mm - 28 W/m² -
1788500833 18.33° C 86% 1013 hPa 0 mm - 25 W/m² -
1788500233 18.33° C 86% 1013.2 hPa 0 mm - 40 W/m² -
1788499633 18.33° C 85% 1013.2 hPa 0 mm - 30 W/m² -
1788499033 18.33° C 85% 1013.3 hPa 0 mm - 21 W/m² -
1788498433 18.33° C 85% 1013.2 hPa 0 mm - 12 W/m² -
1788497833 18.33° C 85% 1013.1 hPa 0 mm - 5 W/m² -
1788497233 18.33° C 85% 1013.3 hPa 0 mm - 0 W/m² -
1788496633 17.78° C 85% 1013.3 hPa 0 mm - 0 W/m² -
1788496033 17.78° C 85% 1013.5 hPa 0 mm - 0 W/m² -
1788495433 17.78° C 85% 1013.5 hPa 0 mm - 0 W/m² -
1788494833 17.78° C 85% 1013.6 hPa 0 mm - 0 W/m² -
1788494233 17.78° C 85% 1013.7 hPa 0 mm - 0 W/m² -
1788493633 17.78° C 85% 1013.9 hPa 0 mm - 0 W/m² -
1788493033 17.78° C 85% 1014 hPa 0 mm - 0 W/m² -
1788492433 17.78° C 85% 1014 hPa 0 mm - 0 W/m² -
1788491833 17.78° C 85% 1014.1 hPa 0 mm - 0 W/m² -
1788491233 17.78° C 85% 1014.2 hPa 0 mm - 0 W/m² -
1788490633 17.78° C 85% 1014.4 hPa 0 mm - 0 W/m² -
1788490033 17.78° C 85% 1014.5 hPa 0 mm - 0 W/m² -
1788489433 17.78° C 85% 1014.7 hPa 0 mm - 0 W/m² -
1788488833 17.78° C 86% 1014.7 hPa 0 mm - 0 W/m² -
1788488233 17.78° C 86% 1014.9 hPa 0 mm - 0 W/m² -
1788487633 17.22° C 86% 1014.9 hPa 0 mm - 0 W/m² -
1788487033 17.22° C 85% 1015 hPa 0 mm - 0 W/m² -

* Rain latest hour (hover to see other rain measurements)
** Current wind speed in m/s (hover to see current wind gust speed)